Location: D�derode
(51.8092°N, 10.1065°E)
Time: 17:12:07
(UTC+00:00)

BREEZE-M DEB (TANK) - Pass Details

Date: 19 April 2021
Orbit: 315 x 13085 km, 49.6° (Epoch: 11 May)

Event Time Altitude Azimuth Distance (km) Brightness Sun altitude
Rises 20:47:27 0° 235° (SW) 14,864 10.1 -18.8°
Reaches altitude 10° 21:04:09 10° 236° (WSW) 11,368 9.5 -20.4°
Maximum altitude 21:35:39 68° 163° (SSE) 2,240 5.5 -22.9°
Drops below altitude 10° 21:42:26 10° 82° (E) 2,881 6.3 -23.4°
Sets 21:44:00 0° 79° (E) 3,438 6.7 -23.5°
